Weather History for Lincoln, NE

Change the Weather History Date:

Friday, January 10, 2014

  Actual Average Record
Temperature  
Mean Temperature 28 °F 24 °F  
Max Temperature 35 °F 35 °F 73 °F (1990)
Min Temperature 20 °F 14 °F -18 °F (1982)
Degree Days  
Heating Degree Days 37 41  
Month to date heating degree days 507 407  
Since 1 July heating degree days 3125 2852  
Cooling Degree Days 0 0  
Month to date cooling degree days 0 0  
Year to date cooling degree days 0 0  
Moisture  
Dew Point 29 °F    
Average Humidity 91    
Maximum Humidity 100    
Minimum Humidity 82    
Precipitation  
Precipitation T in 0.02 in 0.76 in (1975)
Month to date precipitation 0.20 0.20  
Year to date precipitation 0.20 0.20  
Snow  
Snow T in 0.20 in - ()
Month to date snowfall 3.3 1.6  
Since 1 July snowfall 9.2 10.3  
Snow Depth 1.00 in    
Sea Level Pressure  
Sea Level Pressure 29.67 in    
Wind  
Wind Speed 5 mph (SSW)    
Max Wind Speed 14 mph    
Max Gust Speed 17 mph    
Visibility 4 miles    
Events Fog , Snow    
T = Trace of Precipitation, MM = Missing Value Source: NWS Daily Summary

Daily Weather History Graph

Daily Weather History Graph

Search for Another Location

Airport:

Trip Planner

Search our weather history database for the weather conditions in past years. The results will help you decide how hot, cold, wet, or windy it might be!

Date:

Astronomy

Jan. 10, 2014 Rise Set
Actual Time 7:50 AM CST 5:18 PM CST
Civil Twilight 7:20 AM CST 5:49 PM CST
Nautical Twilight 6:46 AM CST 6:23 PM CST
Astronomical Twilight 6:13 AM CST 6:56 PM CST
Moon 1:23 PM CST (1/10) 2:59 AM CST (1/10)
Length of Visible Light 10h 28m
Length of Day
9h 27m
Waxing Gibbous, 75% of the Moon is Illuminated
Jan 10
Waxing Gibbous
Jan 15
Full
Jan 23
Last Quarter
Jan 30
New
Feb 6
First Quarter

Hourly Weather History & Observations

Time (CST) Temp. Windchill Dew Point Humidity Pressure Visibility Wind Dir Wind Speed Gust Speed Precip Events Conditions
12:41 AM 28.0 °F 19.3 °F 25.0 °F 88% 29.90 in 4.0 mi South 9.2 mph - N/A   Overcast
12:54 AM 28.0 °F 18.1 °F 25.0 °F 88% 29.94 in 4.0 mi South 11.5 mph - N/A   Overcast
1:12 AM 28.9 °F 19.8 °F 26.1 °F 89% 29.87 in 4.0 mi South 10.4 mph - N/A   Overcast
1:54 AM 28.9 °F 19.8 °F 27.0 °F 92% 29.90 in 3.0 mi South 10.4 mph - N/A   Overcast
2:54 AM 30.0 °F 21.7 °F 28.0 °F 92% 29.88 in 3.0 mi South 9.2 mph - N/A   Overcast
3:54 AM 30.0 °F 21.7 °F 28.9 °F 96% 29.83 in 3.0 mi SSE 9.2 mph - N/A   Overcast
4:54 AM 30.9 °F 22.8 °F 28.9 °F 92% 29.81 in 4.0 mi SSE 9.2 mph - N/A   Overcast
5:54 AM 30.9 °F 24.3 °F 28.9 °F 92% 29.78 in 3.0 mi SSE 6.9 mph - N/A   Overcast
6:19 AM 30.9 °F 24.3 °F 28.9 °F 92% 29.73 in 2.5 mi SSE 6.9 mph - N/A   Overcast
6:32 AM 30.9 °F 25.2 °F 28.9 °F 92% 29.72 in 2.5 mi SSE 5.8 mph - N/A   Overcast
6:54 AM 30.9 °F 24.3 °F 30.0 °F 96% 29.75 in 2.5 mi SSE 6.9 mph - N/A   Overcast
7:54 AM 30.9 °F 23.5 °F 28.9 °F 92% 29.75 in 2.5 mi SSE 8.1 mph - N/A   Overcast
8:21 AM 30.9 °F 22.8 °F 30.0 °F 96% 29.70 in 1.5 mi SSE 9.2 mph - N/A   Overcast
8:54 AM 30.9 °F 24.3 °F 30.0 °F 96% 29.74 in 1.0 mi South 6.9 mph - N/A   Overcast
9:31 AM 32.0 °F 25.6 °F 30.9 °F 96% 29.69 in 0.8 mi SSE 6.9 mph - N/A   Overcast
9:54 AM 32.0 °F 25.6 °F 30.9 °F 96% 29.73 in 0.8 mi SSE 6.9 mph - N/A   Overcast
10:28 AM 32.0 °F 24.8 °F 30.9 °F 96% 29.67 in 1.0 mi SSE 8.1 mph - N/A   Overcast
10:54 AM 32.0 °F 25.6 °F 30.9 °F 96% 29.69 in 2.5 mi SSE 6.9 mph - N/A   Overcast
11:06 AM 33.1 °F 28.7 °F 32.0 °F 96% 29.65 in 3.0 mi South 4.6 mph - N/A   Overcast
11:54 AM 33.1 °F 28.7 °F 32.0 °F 96% 29.64 in 4.0 mi South 4.6 mph - N/A   Overcast
12:54 PM 34.0 °F - 30.9 °F 89% 29.60 in 4.0 mi Calm Calm - N/A   Overcast
1:01 PM 34.0 °F - 32.0 °F 92% 29.57 in 4.0 mi Calm Calm - N/A   Overcast
1:11 PM 34.0 °F 29.8 °F 30.9 °F 89% 29.57 in 4.0 mi SSE 4.6 mph - N/A   Overcast
1:20 PM 34.0 °F 28.0 °F 32.0 °F 92% 29.57 in 4.0 mi South 6.9 mph - N/A   Overcast
1:32 PM 34.0 °F 28.0 °F 32.0 °F 92% 29.57 in 4.0 mi SSE 6.9 mph - N/A   Overcast
1:54 PM 34.0 °F 31.0 °F 32.0 °F 92% 29.59 in 4.0 mi South 3.5 mph - N/A   Overcast
2:12 PM 34.0 °F 31.0 °F 32.0 °F 92% 29.56 in 5.0 mi South 3.5 mph - N/A   Overcast
2:39 PM 35.1 °F 31.0 °F 32.0 °F 89% 29.55 in 7.0 mi SSW 4.6 mph - N/A   Overcast
2:54 PM 35.1 °F - 30.9 °F 85% 29.58 in 8.0 mi Calm Calm - N/A   Overcast
3:08 PM 35.1 °F 31.0 °F 30.0 °F 82% 29.55 in 10.0 mi WSW 4.6 mph - N/A   Overcast
3:24 PM 34.0 °F 28.8 °F 30.0 °F 85% 29.56 in 10.0 mi WSW 5.8 mph - N/A   Overcast
3:54 PM 34.0 °F 29.8 °F 30.9 °F 89% 29.59 in 4.0 mi West 4.6 mph - 0.00 in Snow Light Snow
4:31 PM 34.0 °F - 30.9 °F 89% 29.57 in 4.0 mi Calm Calm - 0.00 in Snow Light Snow
4:54 PM 34.0 °F 31.0 °F 32.0 °F 92% 29.60 in 6.0 mi West 3.5 mph - 0.00 in   Overcast
5:04 PM 33.1 °F 30.0 °F 30.9 °F 92% 29.57 in 6.0 mi West 3.5 mph - N/A   Overcast
5:19 PM 33.1 °F - 32.0 °F 96% 29.57 in 6.0 mi Calm Calm - N/A   Overcast
5:54 PM 33.1 °F 30.0 °F 30.9 °F 92% 29.61 in 6.0 mi West 3.5 mph - N/A   Overcast
6:39 PM 32.0 °F 28.7 °F 30.0 °F 92% 29.58 in 5.0 mi West 3.5 mph - N/A   Mostly Cloudy
6:54 PM 32.0 °F 28.7 °F 30.0 °F 92% 29.61 in 5.0 mi West 3.5 mph - N/A   Scattered Clouds
7:54 PM 30.0 °F 26.5 °F 28.9 °F 96% 29.64 in 3.0 mi West 3.5 mph - N/A   Clear
8:04 PM 27.0 °F 23.0 °F 26.1 °F 96% 29.61 in 2.0 mi West 3.5 mph - N/A   Clear
8:18 PM 28.0 °F 24.2 °F 25.0 °F 88% 29.62 in 1.5 mi West 3.5 mph - N/A   Scattered Clouds
8:54 PM 28.9 °F - 28.0 °F 96% 29.66 in 1.5 mi Calm Calm - N/A   Overcast
9:04 PM 28.9 °F - 28.0 °F 96% 29.62 in 2.5 mi Calm Calm - N/A   Mostly Cloudy
9:54 PM 27.0 °F 23.0 °F 26.1 °F 96% 29.66 in 0.8 mi West 3.5 mph - N/A   Clear
10:05 PM 25.0 °F - 24.1 °F 96% 29.63 in 0.2 mi Calm Calm - N/A Fog Light Freezing Fog
10:12 PM 24.1 °F - 21.9 °F 91% 29.63 in 1.0 mi Calm Calm - N/A Fog Light Freezing Fog
10:54 PM 24.1 °F 19.7 °F 21.9 °F 91% 29.68 in 4.0 mi West 3.5 mph - N/A   Clear
11:54 PM 24.1 °F - 21.9 °F 91% 29.69 in 4.0 mi Calm Calm - N/A   Clear